map of TYS home
Great Circle Mapper logo
TYS - Airport
Location
City:  Knoxville, Tennessee, United States
Name:Mc Ghee Tyson Airport
ICAO / IATA:KTYS / TYS
FAA:TYS

Details
Type:Airport (Part 139 Class I)
Use:Public/Civil, International (customs landing rights)
Latitude:3548'39"N (35.810972)
Longitude:8359'38"W (-83.994027)
Datum:WGS 1984
Elevation:981 ft (299 m)
Variation:5.5W (WMM2015 magnetic declination)
Runways:2
Longest:9005 × 150 ft (2745 × 45.5 m), paved

Time
Time Zone:UTC-5 (DST-4)
Local Time:

Weather
METAR:KTYS 211953Z 35005KT 10SM SCT039 11/02 A3011 RMK AO2 SLP196 T01110022
TAF:KTYS 211720Z 2118/2218 02006KT P6SM OVC040
FM212000 03004KT P6SM SCT040
FM220300 03003KT P6SM -DZ OVC035
FM221200 04005KT P6SM OVC040

Related Locations
Nearby:
Farthest:MGV: 11353 mi / 18271 km
Margaret River, WA, AU

Find:

   beyond  
but within

Other Information
Maps:
Delays:
NOTAMs:
Links:
Sources:

  
flag of United States
flag of Tennessee
  

Airport Diagram

Airport diagram for TYS

Airport diagram PDF

Sectional Chart

Flight Planning
at skyvector.com

Satellite Image

Google Maps Satellite View

 

Copyright © 2004-2014 Karl L. Swartz. All rights reserved.
The Great Circle Mapper name and logo are trademarks of the Great Circle Mapper.
All other trademarks mentioned herein belong to their respective owners.
Please see credits for attibutions and further copyright information.

  Follow gcmap on Facebook Follow gcmap on Twitter

hCard Microformat

Geo Microformat